WAT9694 VGHS-VQPR

Flight info

Callsign WAT9694
Flight time 0h 50m
Altitude 28000
Route TEGAK1 TEGAK DCT SDP/N0457F350 DCT BOGOP BOGOP1B
Aircraft B738/M-SDE2E3FGHIRWXY/LB1

Departure

Time 2026-05-09 02:36
Airport Hazrat Shahjalal International Airport (VGHS)

Arrival

Time 2026-05-09 03:26
Airport Paro International Airport (VQPR)
Time Latitude Longitude Altitude Speed Heading
2026-05-09 02:18 23.83629 90.41243 28 ft 0 kts 47°
2026-05-09 02:30 23.83634 90.41262 30 ft 5 kts 103°
2026-05-09 02:30 23.83603 90.41275 30 ft 5 kts 179°
2026-05-09 02:30 23.83560 90.41246 30 ft 12 kts 227°
2026-05-09 02:31 23.83501 90.41173 29 ft 13 kts 229°
2026-05-09 02:31 23.83445 90.41096 30 ft 13 kts 236°
2026-05-09 02:31 23.83395 90.41018 30 ft 12 kts 233°
2026-05-09 02:31 23.83344 90.40943 30 ft 12 kts 233°
2026-05-09 02:32 23.83330 90.40923 30 ft 4 kts 233°
2026-05-09 02:32 23.83281 90.40851 30 ft 23 kts 233°
2026-05-09 02:32 23.83222 90.40680 30 ft 25 kts 294°
2026-05-09 02:32 23.83348 90.40560 30 ft 25 kts 324°
2026-05-09 02:33 23.83522 90.40423 31 ft 36 kts 324°
2026-05-09 02:33 23.83751 90.40241 31 ft 45 kts 323°
2026-05-09 02:33 23.84027 90.40023 30 ft 53 kts 324°
2026-05-09 02:33 23.84334 90.39779 28 ft 54 kts 324°
2026-05-09 02:34 23.84629 90.39545 29 ft 50 kts 324°
2026-05-09 02:34 23.84903 90.39327 29 ft 47 kts 324°
2026-05-09 02:34 23.85160 90.39123 26 ft 45 kts 324°
2026-05-09 02:34 23.85397 90.38948 27 ft 28 kts 328°
2026-05-09 02:35 23.85499 90.38874 26 ft 7 kts 269°
2026-05-09 02:35 23.85485 90.38868 27 ft 2 kts 147°
2026-05-09 02:35 23.85372 90.38957 27 ft 54 kts 144°
2026-05-09 02:35 23.84862 90.39361 29 ft 123 kts 144°
2026-05-09 02:36 23.84022 90.40004 181 ft 162 kts 143°
2026-05-09 02:36 23.83070 90.40735 757 ft 174 kts 142°
2026-05-09 02:36 23.82069 90.41499 1522 ft 177 kts 150°
2026-05-09 02:36 23.80831 90.41637 2283 ft 198 kts 197°
2026-05-09 02:37 23.79677 90.40653 2678 ft 232 kts 239°
2026-05-09 02:37 23.79352 90.38861 3120 ft 260 kts 279°
2026-05-09 02:37 23.80185 90.37120 4021 ft 264 kts 317°
2026-05-09 02:37 23.81792 90.36175 5157 ft 265 kts 338°
2026-05-09 02:38 23.83484 90.35303 6076 ft 273 kts 331°
2026-05-09 02:38 23.85193 90.34346 7042 ft 279 kts 333°
2026-05-09 02:38 23.86955 90.33406 8022 ft 284 kts 330°
2026-05-09 02:38 23.88471 90.32026 8998 ft 286 kts 305°
2026-05-09 02:39 23.89611 90.30232 10059 ft 290 kts 302°
2026-05-09 02:39 23.90772 90.28362 10657 ft 309 kts 302°
2026-05-09 02:39 23.92012 90.26376 11273 ft 322 kts 302°
2026-05-09 02:39 23.93295 90.24351 12156 ft 326 kts 302°
2026-05-09 02:40 23.94596 90.22320 13149 ft 327 kts 302°
2026-05-09 02:40 23.95912 90.20269 14166 ft 331 kts 302°
2026-05-09 02:40 23.97240 90.18198 15026 ft 335 kts 302°
2026-05-09 02:40 23.98585 90.16099 15806 ft 340 kts 302°
2026-05-09 02:41 23.99950 90.13965 16574 ft 345 kts 302°
2026-05-09 02:41 24.01334 90.11799 17337 ft 350 kts 302°
2026-05-09 02:41 24.02740 90.09600 18113 ft 354 kts 302°
2026-05-09 02:41 24.04158 90.07379 18778 ft 358 kts 301°
2026-05-09 02:42 24.05590 90.05137 19475 ft 361 kts 301°
2026-05-09 02:42 24.07031 90.02878 20200 ft 363 kts 301°
2026-05-09 02:42 24.08478 90.00602 20921 ft 365 kts 300°
2026-05-09 02:42 24.09936 89.98305 21612 ft 369 kts 300°
2026-05-09 02:43 24.11383 89.96024 22318 ft 370 kts 300°
2026-05-09 02:43 24.12874 89.93674 23005 ft 373 kts 300°
2026-05-09 02:43 24.14341 89.91359 23593 ft 376 kts 300°
2026-05-09 02:43 24.15860 89.88963 24108 ft 380 kts 300°
2026-05-09 02:44 24.17373 89.86575 24624 ft 383 kts 299°
2026-05-09 02:44 24.18912 89.84183 25128 ft 388 kts 302°
2026-05-09 02:44 24.20913 89.82131 25599 ft 405 kts 320°
2026-05-09 02:44 24.23387 89.80590 26111 ft 412 kts 325°
2026-05-09 02:45 24.25940 89.79124 26560 ft 416 kts 326°
2026-05-09 02:45 24.28534 89.77663 26985 ft 421 kts 326°
2026-05-09 02:45 24.31151 89.76190 27404 ft 425 kts 326°
2026-05-09 02:45 24.33750 89.74716 27829 ft 428 kts 325°
2026-05-09 02:46 24.36401 89.73200 27924 ft 431 kts 325°
2026-05-09 02:46 24.39051 89.71675 27956 ft 427 kts 325°
2026-05-09 02:46 24.41635 89.70190 27944 ft 412 kts 324°
2026-05-09 02:46 24.44132 89.68753 27927 ft 398 kts 324°
2026-05-09 02:47 24.46540 89.67362 27932 ft 384 kts 324°
2026-05-09 02:47 24.48880 89.66004 27936 ft 380 kts 323°
2026-05-09 02:47 24.51222 89.64633 27961 ft 383 kts 323°
2026-05-09 02:47 24.53576 89.63253 27957 ft 385 kts 323°
2026-05-09 02:48 24.55943 89.61866 27952 ft 387 kts 323°
2026-05-09 02:48 24.58325 89.60473 27956 ft 388 kts 323°
2026-05-09 02:48 24.60716 89.59077 27953 ft 389 kts 323°
2026-05-09 02:48 24.63109 89.57681 27955 ft 390 kts 323°
2026-05-09 02:49 24.65507 89.56282 27946 ft 390 kts 323°
2026-05-09 02:49 24.67902 89.54886 27945 ft 390 kts 323°
2026-05-09 02:49 24.70294 89.53490 27971 ft 389 kts 323°
2026-05-09 02:49 24.72684 89.52095 27965 ft 388 kts 323°
2026-05-09 02:50 24.75061 89.50707 27945 ft 387 kts 323°
2026-05-09 02:50 24.77434 89.49321 27941 ft 385 kts 323°
2026-05-09 02:50 24.79793 89.47942 27943 ft 383 kts 323°
2026-05-09 02:50 24.82144 89.46566 27946 ft 382 kts 323°
2026-05-09 02:51 24.84494 89.45191 27957 ft 381 kts 323°
2026-05-09 02:51 24.86832 89.43821 27943 ft 381 kts 323°
2026-05-09 02:51 24.89167 89.42452 27942 ft 380 kts 323°
2026-05-09 02:51 24.91503 89.41081 27952 ft 380 kts 323°
2026-05-09 02:52 24.93838 89.39711 27960 ft 381 kts 323°
2026-05-09 02:52 24.96177 89.38338 27956 ft 381 kts 323°
2026-05-09 02:52 24.98518 89.36963 27958 ft 382 kts 323°
2026-05-09 02:52 25.00867 89.35583 27957 ft 383 kts 323°
2026-05-09 02:53 25.03220 89.34200 27970 ft 383 kts 324°
2026-05-09 02:53 25.05569 89.32820 27955 ft 383 kts 324°
2026-05-09 02:53 25.07920 89.31438 27949 ft 382 kts 324°
2026-05-09 02:53 25.10262 89.30062 27945 ft 381 kts 324°
2026-05-09 02:54 25.12601 89.28686 27948 ft 380 kts 324°
2026-05-09 02:54 25.14931 89.27315 27949 ft 379 kts 324°
2026-05-09 02:54 25.17255 89.25947 27950 ft 378 kts 324°
2026-05-09 02:54 25.19572 89.24581 27951 ft 377 kts 323°
2026-05-09 02:55 25.21888 89.23216 27966 ft 377 kts 323°
2026-05-09 02:55 25.24198 89.21853 27957 ft 377 kts 323°
2026-05-09 02:55 25.26509 89.20488 27953 ft 377 kts 323°
2026-05-09 02:55 25.28825 89.19121 27955 ft 377 kts 323°
2026-05-09 02:56 25.31109 89.17772 27957 ft 378 kts 323°
2026-05-09 02:56 25.33458 89.16383 27958 ft 378 kts 323°
2026-05-09 02:56 25.35782 89.15009 27959 ft 379 kts 323°
2026-05-09 02:56 25.38106 89.13635 27958 ft 379 kts 323°
2026-05-09 02:57 25.40434 89.12257 27958 ft 380 kts 323°
2026-05-09 02:57 25.42765 89.10878 27957 ft 380 kts 323°
2026-05-09 02:57 25.45071 89.09512 27956 ft 381 kts 323°
2026-05-09 02:57 25.47405 89.08130 27955 ft 381 kts 323°
2026-05-09 02:58 25.49740 89.06746 27957 ft 381 kts 323°
2026-05-09 02:58 25.52078 89.05360 27956 ft 381 kts 323°
2026-05-09 02:58 25.54413 89.03975 27955 ft 381 kts 323°
2026-05-09 02:58 25.56746 89.02591 27956 ft 380 kts 323°
2026-05-09 02:59 25.59079 89.01206 27954 ft 380 kts 323°
2026-05-09 02:59 25.61408 88.99822 27955 ft 380 kts 323°
2026-05-09 02:59 25.63738 88.98437 27957 ft 380 kts 323°
2026-05-09 02:59 25.66068 88.97052 27964 ft 380 kts 323°
2026-05-09 03:00 25.68395 88.95668 27961 ft 380 kts 323°
2026-05-09 03:00 25.70719 88.94285 27959 ft 379 kts 323°
2026-05-09 03:00 25.73074 88.92957 27946 ft 385 kts 332°
2026-05-09 03:00 25.75762 88.92407 27963 ft 403 kts 354°
2026-05-09 03:01 25.78561 88.93006 27960 ft 419 kts 17°
2026-05-09 03:01 25.81084 88.94666 27979 ft 425 kts 33°
2026-05-09 03:01 25.83436 88.96665 27961 ft 427 kts 35°
2026-05-09 03:01 25.85762 88.98713 27956 ft 427 kts 36°
2026-05-09 03:02 25.88087 89.00774 27951 ft 427 kts 36°
2026-05-09 03:02 25.90415 89.02824 27950 ft 427 kts 35°
2026-05-09 03:02 25.92752 89.04864 27951 ft 427 kts 35°
2026-05-09 03:02 25.95096 89.06895 27981 ft 427 kts 35°
2026-05-09 03:03 25.97440 89.08917 27963 ft 427 kts 35°
2026-05-09 03:03 25.99787 89.10935 27956 ft 427 kts 35°
2026-05-09 03:03 26.02131 89.12949 27952 ft 426 kts 35°
2026-05-09 03:03 26.04476 89.14965 27952 ft 425 kts 35°
2026-05-09 03:04 26.06816 89.16976 27955 ft 425 kts 35°
2026-05-09 03:04 26.09151 89.18985 27963 ft 425 kts 35°
2026-05-09 03:04 26.10699 89.20317 27964 ft 425 kts 35°
2026-05-09 03:04 26.13037 89.22331 27951 ft 425 kts 35°
2026-05-09 03:05 26.15371 89.24342 27936 ft 424 kts 35°
2026-05-09 03:05 26.17703 89.26353 27947 ft 424 kts 35°
2026-05-09 03:05 26.20040 89.28369 27954 ft 425 kts 35°
2026-05-09 03:05 26.22366 89.30376 28849 ft 419 kts 37°
2026-05-09 03:06 26.24647 89.32346 28578 ft 410 kts 37°
2026-05-09 03:06 26.26875 89.34272 28325 ft 401 kts 37°
2026-05-09 03:06 26.29047 89.36150 28164 ft 390 kts 37°
2026-05-09 03:06 26.31158 89.37977 28078 ft 378 kts 37°
2026-05-09 03:07 26.33202 89.39746 28011 ft 367 kts 37°
2026-05-09 03:07 26.37223 89.43226 28013 ft 370 kts 37°
2026-05-09 03:08 26.41330 89.46786 27995 ft 373 kts 38°
2026-05-09 03:08 26.43375 89.48560 27993 ft 372 kts 38°
2026-05-09 03:08 26.45417 89.50331 27996 ft 371 kts 38°
2026-05-09 03:08 26.47450 89.52096 27994 ft 370 kts 38°
2026-05-09 03:09 26.49478 89.53858 27999 ft 369 kts 38°
2026-05-09 03:09 26.51505 89.55619 28000 ft 369 kts 38°
2026-05-09 03:09 26.53531 89.57381 28010 ft 370 kts 38°
2026-05-09 03:10 26.57594 89.60915 28004 ft 371 kts 38°
2026-05-09 03:10 26.59630 89.62688 27997 ft 369 kts 38°
2026-05-09 03:10 26.61655 89.64452 27684 ft 369 kts 38°
2026-05-09 03:10 26.63680 89.66217 27297 ft 369 kts 38°
2026-05-09 03:11 26.65697 89.67975 26905 ft 367 kts 38°
2026-05-09 03:11 26.67683 89.69707 26534 ft 367 kts 38°
2026-05-09 03:11 26.69693 89.71460 26150 ft 365 kts 37°
2026-05-09 03:11 26.71874 89.72871 25731 ft 362 kts 17°
2026-05-09 03:12 26.74340 89.73248 25371 ft 358 kts 356°
2026-05-09 03:12 26.76762 89.72720 24998 ft 355 kts 338°
2026-05-09 03:12 26.78963 89.71503 24652 ft 352 kts 331°
2026-05-09 03:12 26.81107 89.70175 24202 ft 352 kts 330°
2026-05-09 03:13 26.85425 89.67544 23341 ft 353 kts 331°
2026-05-09 03:13 26.87439 89.66002 22945 ft 350 kts 313°
2026-05-09 03:13 26.89036 89.64010 22821 ft 340 kts 311°
2026-05-09 03:14 26.90604 89.62050 22651 ft 334 kts 312°
2026-05-09 03:14 26.92160 89.60142 22503 ft 329 kts 312°
2026-05-09 03:14 26.93715 89.58250 22369 ft 332 kts 312°
2026-05-09 03:14 26.95301 89.56329 22238 ft 340 kts 314°
2026-05-09 03:15 26.97200 89.54733 22069 ft 346 kts 336°
2026-05-09 03:15 26.99518 89.54043 21957 ft 347 kts 353°
2026-05-09 03:15 27.01931 89.53776 21828 ft 349 kts 355°
2026-05-09 03:15 27.04363 89.53541 21671 ft 351 kts 354°
2026-05-09 03:16 27.06800 89.53283 21325 ft 352 kts 354°
2026-05-09 03:16 27.09226 89.53007 20991 ft 349 kts 354°
2026-05-09 03:16 27.11627 89.52726 20667 ft 344 kts 354°
2026-05-09 03:16 27.13971 89.52442 20353 ft 334 kts 352°
2026-05-09 03:17 27.16179 89.51792 19984 ft 325 kts 334°
2026-05-09 03:17 27.18000 89.50355 19682 ft 319 kts 314°
2026-05-09 03:17 27.19320 89.48348 19392 ft 323 kts 297°
2026-05-09 03:17 27.20332 89.46077 19097 ft 327 kts 297°
2026-05-09 03:18 27.21413 89.43828 18764 ft 326 kts 298°
2026-05-09 03:18 27.22504 89.41614 18434 ft 320 kts 299°
2026-05-09 03:18 27.23486 89.39412 18113 ft 312 kts 289°
2026-05-09 03:18 27.24095 89.37107 17825 ft 305 kts 285°
2026-05-09 03:19 27.24693 89.34841 17520 ft 300 kts 290°
2026-05-09 03:19 27.25722 89.32860 17230 ft 290 kts 311°
2026-05-09 03:19 27.27245 89.31459 16985 ft 278 kts 330°
2026-05-09 03:19 27.29001 89.30671 16703 ft 268 kts 346°
2026-05-09 03:20 27.30815 89.30418 16427 ft 259 kts
2026-05-09 03:20 27.32576 89.30603 16198 ft 250 kts
2026-05-09 03:20 27.34294 89.30683 15942 ft 248 kts 351°
2026-05-09 03:20 27.35924 89.30093 15728 ft 247 kts 332°
2026-05-09 03:21 27.37365 89.29050 15485 ft 247 kts 323°
2026-05-09 03:21 27.38777 89.27953 15240 ft 247 kts 326°
2026-05-09 03:21 27.40201 89.26886 14982 ft 243 kts 326°
2026-05-09 03:21 27.41655 89.25951 14748 ft 238 kts 338°
2026-05-09 03:22 27.43243 89.25576 14550 ft 234 kts 358°
2026-05-09 03:22 27.44843 89.25849 14308 ft 234 kts 18°
2026-05-09 03:22 27.46269 89.26696 14062 ft 232 kts 37°
2026-05-09 03:22 27.47387 89.27997 13843 ft 232 kts 53°
2026-05-09 03:23 27.48147 89.29604 13274 ft 230 kts 71°
2026-05-09 03:23 27.48422 89.31320 12714 ft 217 kts 89°
2026-05-09 03:23 27.48189 89.32947 12203 ft 206 kts 109°
2026-05-09 03:23 27.47558 89.34343 11690 ft 196 kts 125°
2026-05-09 03:24 27.46680 89.35490 11197 ft 193 kts 138°
2026-05-09 03:24 27.45599 89.36373 10711 ft 192 kts 149°
2026-05-09 03:24 27.44547 89.37258 10290 ft 182 kts 131°
2026-05-09 03:24 27.43909 89.38448 9862 ft 178 kts 110°
2026-05-09 03:25 27.43629 89.39782 9340 ft 176 kts 102°
2026-05-09 03:25 27.43244 89.41071 8816 ft 166 kts 130°
2026-05-09 03:25 27.42209 89.41577 7993 ft 173 kts 176°
2026-05-09 03:25 27.41074 89.42004 7378 ft 167 kts 151°
2026-05-09 03:26 27.40226 89.42537 7326 ft 88 kts 150°
2026-05-09 03:26 27.39833 89.42787 7321 ft 60 kts 150°
2026-05-09 03:26 27.39604 89.42933 7318 ft 27 kts 150°
2026-05-09 03:26 27.39476 89.43012 7314 ft 14 kts 162°
2026-05-09 03:27 27.39431 89.42942 7322 ft 13 kts 301°
2026-05-09 03:27 27.39507 89.42886 7323 ft 13 kts 330°
2026-05-09 03:27 27.39586 89.42835 7324 ft 14 kts 330°
2026-05-09 03:27 27.39673 89.42780 7324 ft 14 kts 331°
2026-05-09 03:28 27.39757 89.42727 7321 ft 13 kts 331°
2026-05-09 03:28 27.39836 89.42676 7325 ft 13 kts 329°
2026-05-09 03:28 27.39914 89.42626 7325 ft 13 kts 330°
2026-05-09 03:28 27.39995 89.42575 7324 ft 14 kts 331°
2026-05-09 03:29 27.40079 89.42522 7326 ft 15 kts 331°
2026-05-09 03:29 27.40174 89.42463 7325 ft 15 kts 330°
2026-05-09 03:29 27.40264 89.42404 7324 ft 15 kts 330°
2026-05-09 03:29 27.40351 89.42349 7328 ft 14 kts 331°
2026-05-09 03:30 27.40435 89.42296 7328 ft 13 kts 330°
2026-05-09 03:30 27.40515 89.42245 7329 ft 13 kts 329°
2026-05-09 03:30 27.40577 89.42199 7329 ft 6 kts 319°
2026-05-09 03:30 27.40579 89.42173 7327 ft 4 kts 253°
2026-05-09 03:31 27.40566 89.42145 7326 ft 0 kts 240°
2026-05-09 03:42 27.40567 89.42148 7328 ft 3 kts 241°
2026-05-09 03:43 27.40575 89.42174 7352 ft 4 kts 276°
2026-05-09 03:43 27.40566 89.42201 7329 ft 4 kts 311°
2026-05-09 03:43 27.40546 89.42221 7329 ft 4 kts 326°
2026-05-09 03:43 27.40528 89.42234 7329 ft 1 kts 327°
2026-05-09 03:47 27.40564 89.42209 7329 ft 9 kts 329°
2026-05-09 03:47 27.40618 89.42175 7330 ft 9 kts 330°
2026-05-09 03:47 27.40672 89.42141 7330 ft 11 kts 330°
2026-05-09 03:48 27.40746 89.42094 7330 ft 12 kts 331°
2026-05-09 03:48 27.40821 89.42085 7334 ft 12 kts 41°
2026-05-09 03:48 27.40888 89.42112 7340 ft 12 kts 331°
2026-05-09 03:48 27.40958 89.42069 7341 ft 11 kts 333°
2026-05-09 03:49 27.41026 89.42027 7342 ft 11 kts 330°
2026-05-09 03:49 27.41091 89.41985 7342 ft 11 kts 330°
2026-05-09 03:49 27.41153 89.41926 7343 ft 12 kts 306°
2026-05-09 03:49 27.41202 89.41916 7343 ft 1 kts 83°
2026-05-09 03:50 27.41197 89.41920 7343 ft 0 kts 144°
2026-05-09 03:50 27.41149 89.41953 7342 ft 37 kts 150°
2026-05-09 03:50 27.40678 89.42253 7337 ft 116 kts 150°
2026-05-09 03:50 27.39775 89.42823 7361 ft 176 kts 150°
2026-05-09 03:51 27.38653 89.43590 7960 ft 195 kts 141°
2026-05-09 03:51 27.37601 89.44545 8958 ft 192 kts 141°
2026-05-09 03:51 27.36515 89.45497 9643 ft 211 kts 134°
2026-05-09 03:51 27.35398 89.46722 9912 ft 238 kts 137°
2026-05-09 03:52 27.34065 89.47943 10390 ft 253 kts 138°
2026-05-09 03:52 27.32892 89.49414 11234 ft 249 kts 129°
2026-05-09 03:52 27.31818 89.50939 12218 ft 250 kts 126°
2026-05-09 03:52 27.30798 89.52531 13115 ft 252 kts 125°
2026-05-09 03:53 27.29584 89.53970 13981 ft 258 kts 148°
2026-05-09 03:53 27.27906 89.54653 14827 ft 259 kts 169°
2026-05-09 03:53 27.26113 89.54962 15650 ft 262 kts 172°
2026-05-09 03:53 27.24292 89.55125 16427 ft 266 kts 188°
2026-05-09 03:54 27.22612 89.54296 17166 ft 269 kts 223°
2026-05-09 03:54 27.21646 89.52534 18042 ft 269 kts 253°
2026-05-09 03:54 27.21084 89.50517 18825 ft 272 kts 250°
2026-05-09 03:54 27.20436 89.48510 19522 ft 275 kts 249°
2026-05-09 03:55 27.19762 89.46505 20332 ft 274 kts 249°
2026-05-09 03:55 27.19072 89.44497 21094 ft 276 kts 248°
2026-05-09 03:55 27.18370 89.42484 21799 ft 278 kts 249°
2026-05-09 03:55 27.17661 89.40469 22574 ft 278 kts 248°
2026-05-09 03:56 27.16945 89.38443 23311 ft 280 kts 248°
2026-05-09 03:56 27.16234 89.36443 24195 ft 274 kts 248°
2026-05-09 03:56 27.15524 89.34453 24829 ft 276 kts 247°
2026-05-09 03:56 27.14808 89.32448 25425 ft 278 kts 247°
2026-05-09 03:57 27.14084 89.30428 26045 ft 280 kts 247°
2026-05-09 03:57 27.13356 89.28396 26654 ft 283 kts 246°
2026-05-09 03:57 27.12597 89.26283 26779 ft 302 kts 246°
2026-05-09 03:57 27.11785 89.24027 26896 ft 320 kts 246°
2026-05-09 03:58 27.10927 89.21643 26982 ft 339 kts 247°
2026-05-09 03:58 27.10021 89.19128 27080 ft 357 kts 247°
2026-05-09 03:58 27.09068 89.16480 27178 ft 374 kts 247°
2026-05-09 03:58 27.08076 89.13724 27251 ft 388 kts 246°
2026-05-09 03:59 27.07047 89.10870 27347 ft 400 kts 247°
2026-05-09 03:59 27.05989 89.07933 27426 ft 411 kts 247°
2026-05-09 03:59 27.04905 89.04931 27636 ft 419 kts 247°
2026-05-09 03:59 27.03809 89.01895 28002 ft 421 kts 247°
2026-05-09 04:00 27.02711 88.98856 28545 ft 420 kts 246°
2026-05-09 04:00 27.01619 88.95833 29180 ft 416 kts 246°
2026-05-09 04:00 27.00536 88.92843 29869 ft 412 kts 246°
2026-05-09 04:00 26.99454 88.89859 30110 ft 414 kts 246°
2026-05-09 04:01 26.97014 88.84077 30086 ft 409 kts 238°
2026-05-09 04:01 26.93996 88.78614 30088 ft 415 kts 238°
2026-05-09 04:02 26.90951 88.73075 30065 ft 419 kts 238°
2026-05-09 04:02 26.87916 88.67520 30043 ft 414 kts 238°
2026-05-09 04:03 26.84937 88.62059 29992 ft 409 kts 238°
2026-05-09 04:03 26.81973 88.56635 29999 ft 408 kts 238°
2026-05-09 04:04 26.79015 88.51226 29998 ft 407 kts 238°
2026-05-09 04:04 26.76052 88.45815 30015 ft 408 kts 238°
2026-05-09 04:05 26.73078 88.40391 29973 ft 410 kts 238°
2026-05-09 04:05 26.70892 88.34554 29977 ft 414 kts 261°
2026-05-09 04:06 26.70879 88.31318 29977 ft 419 kts 273°
2026-05-09 04:06 26.71477 88.28113 29961 ft 426 kts 285°
2026-05-09 04:06 26.72796 88.25121 29979 ft 433 kts 297°
2026-05-09 04:06 26.74434 88.22279 30002 ft 435 kts 298°
2026-05-09 04:07 26.77703 88.16601 30004 ft 433 kts 297°
2026-05-09 04:07 26.80910 88.10899 30010 ft 432 kts 297°
2026-05-09 04:08 26.84094 88.05208 30016 ft 430 kts 297°
2026-05-09 04:08 26.87263 87.99534 30064 ft 430 kts 297°
2026-05-09 04:09 26.90444 87.93836 30066 ft 433 kts 297°
2026-05-09 04:09 26.93641 87.88105 30045 ft 434 kts 298°
2026-05-09 04:10 26.96819 87.82406 30042 ft 434 kts 297°
2026-05-09 04:10 27.00019 87.76655 30091 ft 435 kts 297°
2026-05-09 04:11 27.03217 87.70902 30076 ft 434 kts 297°
2026-05-09 04:11 27.06403 87.65166 30082 ft 433 kts 298°
2026-05-09 04:12 27.09591 87.59413 30118 ft 434 kts 298°
2026-05-09 04:12 27.12780 87.53653 30107 ft 434 kts 298°
2026-05-09 04:13 27.15970 87.47881 30114 ft 436 kts 298°
2026-05-09 04:13 27.19174 87.42080 30100 ft 438 kts 299°
2026-05-09 04:14 27.22384 87.36259 30142 ft 439 kts 298°
2026-05-09 04:14 27.25595 87.30428 30149 ft 439 kts 299°
2026-05-09 04:15 27.28785 87.24627 30127 ft 439 kts 299°
2026-05-09 04:15 27.31682 87.18616 30140 ft 436 kts 289°
2026-05-09 04:16 27.33173 87.12043 30208 ft 434 kts 280°
2026-05-09 04:16 27.34431 87.05396 30191 ft 435 kts 280°
2026-05-09 04:17 27.35716 86.98739 30187 ft 435 kts 281°
2026-05-09 04:17 27.37020 86.92084 30191 ft 435 kts 281°
2026-05-09 04:18 27.38330 86.85423 30177 ft 436 kts 281°
2026-05-09 04:18 27.39636 86.78764 30169 ft 436 kts 281°
2026-05-09 04:19 27.40938 86.72104 30052 ft 436 kts 281°
2026-05-09 04:19 27.41590 86.68762 29469 ft 434 kts 281°
2026-05-09 04:19 27.42241 86.65424 28851 ft 429 kts 281°
2026-05-09 04:20 27.42865 86.62215 28262 ft 423 kts 281°
2026-05-09 04:20 27.43490 86.59000 27759 ft 419 kts 282°
2026-05-09 04:20 27.44108 86.55811 27182 ft 416 kts 282°
2026-05-09 04:20 27.44722 86.52645 26625 ft 413 kts 282°
2026-05-09 04:21 27.45331 86.49495 26071 ft 410 kts 282°
2026-05-09 04:21 27.45937 86.46362 25475 ft 408 kts 282°
2026-05-09 04:21 27.47137 86.40140 24348 ft 405 kts 282°
2026-05-09 04:22 27.47732 86.37048 23788 ft 404 kts 282°
2026-05-09 04:22 27.48326 86.33965 23141 ft 402 kts 282°
2026-05-09 04:22 27.48915 86.30898 22531 ft 399 kts 282°
2026-05-09 04:22 27.49498 86.27858 21969 ft 396 kts 282°
2026-05-09 04:23 27.50020 86.24825 21340 ft 394 kts 279°
2026-05-09 04:23 27.50404 86.21777 20753 ft 391 kts 277°
2026-05-09 04:23 27.50736 86.18746 20225 ft 389 kts 276°
2026-05-09 04:23 27.51059 86.15732 19637 ft 387 kts 277°
2026-05-09 04:24 27.51388 86.12729 19118 ft 384 kts 277°
2026-05-09 04:24 27.51725 86.09748 18579 ft 383 kts 277°
2026-05-09 04:24 27.52068 86.06781 17992 ft 381 kts 277°
2026-05-09 04:24 27.52411 86.03835 17436 ft 378 kts 277°
2026-05-09 04:25 27.52752 86.00913 16906 ft 375 kts 277°
2026-05-09 04:25 27.53091 85.98012 16390 ft 372 kts 277°
2026-05-09 04:25 27.53427 85.95136 15912 ft 369 kts 277°
2026-05-09 04:25 27.53756 85.92320 15817 ft 356 kts 277°
2026-05-09 04:26 27.54073 85.89599 15642 ft 345 kts 277°
2026-05-09 04:26 27.54380 85.86957 15475 ft 335 kts 277°
2026-05-09 04:26 27.54689 85.84396 15297 ft 326 kts 279°
2026-05-09 04:26 27.55024 85.82742 15043 ft 327 kts 285°
2026-05-09 04:27 27.55937 85.79524 14581 ft 325 kts 288°
2026-05-09 04:27 27.56658 85.77132 14113 ft 321 kts 288°
2026-05-09 04:27 27.57358 85.74765 13658 ft 315 kts 288°
2026-05-09 04:27 27.58031 85.72432 13287 ft 313 kts 287°
2026-05-09 04:28 27.58690 85.70103 12933 ft 311 kts 287°
2026-05-09 04:28 27.59340 85.67776 12609 ft 311 kts 287°
2026-05-09 04:28 27.59989 85.65443 12274 ft 314 kts 287°
2026-05-09 04:28 27.60422 85.63881 12027 ft 315 kts 287°
2026-05-09 04:29 27.61078 85.61519 11683 ft 315 kts 287°
2026-05-09 04:29 27.61727 85.59176 11382 ft 311 kts 287°
2026-05-09 04:29 27.62369 85.56858 11105 ft 308 kts 287°
2026-05-09 04:29 27.63006 85.54559 10819 ft 306 kts 287°
2026-05-09 04:30 27.63630 85.52303 10598 ft 293 kts 287°
2026-05-09 04:30 27.64213 85.50195 10521 ft 270 kts 287°
2026-05-09 04:30 27.64758 85.48226 10187 ft 263 kts 287°
2026-05-09 04:30 27.65386 85.46337 9825 ft 250 kts 292°
2026-05-09 04:31 27.66126 85.44619 9536 ft 236 kts 298°
2026-05-09 04:31 27.66887 85.43014 9303 ft 229 kts 298°
2026-05-09 04:31 27.67631 85.41444 9092 ft 226 kts 298°
2026-05-09 04:31 27.68370 85.39878 8883 ft 226 kts 298°
2026-05-09 04:32 27.69108 85.38311 8680 ft 226 kts 298°
2026-05-09 04:32 27.69846 85.36741 8462 ft 227 kts 297°
2026-05-09 04:32 27.70583 85.35171 8246 ft 226 kts 297°
2026-05-09 04:32 27.71319 85.33603 8036 ft 224 kts 298°
2026-05-09 04:33 27.72013 85.32073 7828 ft 212 kts 293°
2026-05-09 04:33 27.72363 85.30528 7622 ft 199 kts 271°
2026-05-09 04:33 27.72199 85.29001 7418 ft 194 kts 252°
2026-05-09 04:33 27.71610 85.27714 7225 ft 181 kts 229°
2026-05-09 04:34 27.70658 85.26808 7001 ft 179 kts 210°
2026-05-09 04:34 27.69526 85.26263 6766 ft 177 kts 194°
2026-05-09 04:34 27.68299 85.26071 6578 ft 179 kts 179°
2026-05-09 04:34 27.67094 85.26267 6320 ft 171 kts 161°
2026-05-09 04:35 27.66061 85.26841 6091 ft 161 kts 143°
2026-05-09 04:35 27.65275 85.27701 5926 ft 155 kts 127°
2026-05-09 04:35 27.64726 85.28757 5746 ft 157 kts 113°
2026-05-09 04:35 27.64431 85.29944 5551 ft 158 kts 97°
2026-05-09 04:36 27.64434 85.31183 5358 ft 159 kts 82°
2026-05-09 04:36 27.64741 85.32381 5176 ft 160 kts 65°
2026-05-09 04:36 27.65338 85.33443 4985 ft 161 kts 50°
2026-05-09 04:36 27.66167 85.34264 4782 ft 157 kts 33°
2026-05-09 04:37 27.67131 85.34778 4597 ft 150 kts 21°
2026-05-09 04:37 27.68089 85.35198 4417 ft 147 kts 24°
2026-05-09 04:37 27.68986 85.35607 4338 ft 121 kts 22°
2026-05-09 04:37 27.69562 85.35866 4362 ft 57 kts 22°
2026-05-09 04:38 27.69834 85.35992 4356 ft 24 kts 22°
2026-05-09 04:38 27.69894 85.35982 4371 ft 15 kts 308°
2026-05-09 04:38 27.69925 85.35858 4358 ft 16 kts 291°
2026-05-09 04:38 27.69941 85.35811 4365 ft 0 kts 291°